Location: Oshawa
(43.9000°N, 78.8670°W)
Time: 09:25:16
(UTC-04:00)

CZ-4C R/B - Visible Passes

Search period start: 20 June 2018 00:00
Search period end: 30 June 2018 00:00
Orbit: 414 x 499 km, 97.6° (Epoch: 19 June)

Date Brightness Start Highest point End Pass type
(mag) Time Alt. Az. Time Alt. Az. Time Alt. Az.
20 Jun 3.4 02:03:26 55° E 02:03:43 58° ENE 02:07:21 10° N visible
21 Jun 4.9 01:30:16 22° E 01:31:04 23° ENE 01:34:02 10° NNE visible
21 Jun 4.5 03:04:03 24° W 03:04:03 24° W 03:06:52 10° NW visible
22 Jun 5.9 00:57:45 10° ENE 00:58:33 11° ENE 00:59:22 10° NE visible
22 Jun 3.1 02:30:52 62° W 02:30:52 62° W 02:34:32 10° NNW visible
23 Jun 3.7 01:57:42 46° E 01:58:05 48° ENE 02:01:39 10° N visible
23 Jun 5.4 03:31:29 12° W 03:31:29 12° W 03:32:40 10° WNW visible
24 Jun 5.2 01:24:31 19° E 01:25:26 20° ENE 01:28:13 10° NNE visible
24 Jun 4.3 02:58:18 28° W 02:58:18 28° W 03:01:23 10° NW visible
25 Jun 3.0 02:25:08 76° WSW 02:25:11 76° WSW 02:28:54 10° NNW visible
26 Jun 4.0 01:51:57 38° E 01:52:26 40° ENE 01:55:55 10° N visible
26 Jun 5.2 03:25:45 14° W 03:25:45 14° W 03:27:31 10° WNW visible
27 Jun 5.4 01:18:47 16° E 01:19:48 18° ENE 01:22:19 10° NNE visible
27 Jun 4.0 02:52:34 33° W 02:52:34 33° W 02:55:48 10° NNW visible
28 Jun 3.0 02:19:24 85° SSE 02:19:30 89° E 02:23:13 10° NNW visible
29 Jun 4.3 01:46:14 32° E 01:46:45 34° ENE 01:50:07 10° N visible
29 Jun 5.0 03:20:01 17° W 03:20:01 17° W 03:22:09 10° NW visible
